Wind_Speed
20 22 24 25 27 29 29 30 31 33 33 33 34 35 35 36 36 36 35 35 34 34 34 33 32 32 31 30 30 30 30 29 29 28 27 27 27 27
17 19 21 23 25 27 28 29 29 31 31 32 32 34 34 35 35 36 36 37 37 36 35 35 34 33 33 32 32 31 30 30 30 30 29 29 28 28
15 18 20 22 23 25 26 27 29 29 29 30 31 32 32 33 34 34 35 36 37 36 35 35 35 34 34 34 33 33 32 31 30 30 30 29 29 30
11 14 17 19 21 23 25 27 28 29 29 30 31 31 32 32 33 34 34 36 35 36 37 37 36 35 34 34 34 33 33 32 31 31 30 30 30 30
7 9 12 15 18 20 22 25 26 28 29 29 30 32 32 31 32 32 33 34 35 35 36 36 36 36 36 35 35 34 33 32 32 31 30 31 31 31
4 6 9 12 15 18 19 22 24 25 27 28 29 30 31 31 32 32 32 33 34 35 36 35 35 36 35 35 34 34 34 33 33 32 31 31 31 32
3 4 6 9 12 14 16 18 21 23 25 26 26 28 29 29 30 31 31 33 33 33 35 35 35 35 34 34 34 33 33 33 32 32 32 32 32 32
4 4 4 6 9 11 13 16 18 20 22 23 24 25 26 28 29 30 30 31 31 31 33 33 34 34 34 34 33 33 33 33 32 31 31 32 32 32
6 4 4 4 6 8 11 13 15 17 19 20 21 22 23 25 27 28 30 30 30 30 32 33 33 33 33 33 33 33 32 30 30 30 31 32 32 32
8 6 5 4 5 7 9 11 12 15 17 18 19 21 22 23 24 26 27 29 30 31 31 32 32 32 32 32 31 32 31 31 31 31 31 30 31 31
9 7 6 5 5 6 8 9 11 13 14 16 17 19 21 22 23 24 25 26 28 28 29 29 30 31 31 30 31 31 31 31 30 30 30 30 29 29
10 8 7 7 7 6 7 8 10 11 13 14 16 18 19 21 22 23 24 26 26 27 28 29 29 30 30 30 31 31 31 30 30 29 29 28 28 28
11 9 8 8 8 7 7 7 8 10 11 13 15 16 18 19 21 22 23 24 25 26 26 27 27 28 28 28 29 29 29 29 29 29 29 28 27 27
12 11 11 10 9 9 9 9 9 10 11 13 14 16 17 19 19 20 21 23 24 24 25 25 26 27 27 27 28 28 29 29 29 29 29 28 27 27
13 13 12 11 11 10 10 10 10 10 11 12 14 15 16 16 18 18 19 20 22 23 24 24 25 25 26 27 28 28 28 29 29 29 29 28 28 28
14 13 13 12 12 12 11 11 11 11 11 12 13 14 15 15 16 17 18 19 20 21 22 23 24 25 26 26 27 26 26 26 26 27 27 27 27 26
16 16 15 14 14 14 13 13 13 13 13 13 13 13 14 15 16 17 17 18 20 21 22 23 23 25 26 26 26 26 26 26 26 26 26 25 25 25
19 18 18 17 16 16 16 15 15 15 15 15 15 15 15 15 16 16 17 18 19 20 21 22 23 23 24 25 25 25 26 26 26 26 26 25 25 25
21 21 21 20 20 19 18 18 18 18 17 17 17 16 16 16 16 17 18 18 19 19 20 21 22 22 22 22 23 24 25 25 25 25 25 25 24 24
24 24 24 24 23 22 22 21 21 21 20 20 19 19 18 18 18 18 18 19 19 20 20 21 22 22 22 22 22 23 24 25 24 24 24 24 23 23
27 27 27 27 27 26 26 25 25 24 24 23 23 22 22 22 21 22 22 22 21 22 22 22 22 22 22 23 23 24 24 24 25 25 24 24 24 24
30 30 30 30 30 30 29 29 29 28 27 27 26 26 26 25 25 25 24 24 24 24 24 25 24 24 24 24 25 25 24 24 24 24 24 25 25 25
34 33 33 33 33 33 33 32 32 32 31 31 30 30 30 29 29 28 28 28 28 27 27 27 27 27 26 26 26 26 26 25 25 25 26 26 26 26
Wind_Direction
234 232 231 230 229 229 230 231 231 231 233 234 234 235 236 237 237 239 239 240 241 241 241 241 243 245 246 248 250 253 256 258 260 262 264 266 268 269
234 231 230 230 229 229 229 230 230 231 232 233 234 236 235 237 238 239 240 243 245 245 244 243 245 246 247 248 250 253 255 258 259 262 264 266 267 269
234 233 231 230 230 229 228 229 230 230 230 231 234 236 237 237 237 239 240 241 243 244 243 244 245 247 248 249 250 252 255 257 260 262 263 264 266 268
237 235 233 233 232 231 231 232 232 232 231 232 234 236 236 238 238 239 241 241 243 244 244 245 245 245 246 248 250 252 254 257 259 260 262 264 266 267
245 239 235 233 232 232 232 233 233 233 233 234 234 236 238 240 240 242 242 243 244 244 245 245 244 244 246 248 250 253 254 256 258 259 260 262 265 267
261 247 242 238 234 232 232 232 233 234 234 236 236 239 241 243 243 244 244 245 245 246 245 244 243 244 246 247 251 252 253 255 257 259 261 262 264 266
309 274 257 245 236 233 232 234 235 235 236 238 240 242 243 244 244 244 245 246 246 246 245 243 243 244 245 247 250 251 253 255 257 259 261 263 265 266
334 309 280 256 243 240 239 239 239 237 238 239 240 243 245 245 245 244 244 244 245 244 242 241 242 243 245 246 248 251 253 254 255 257 260 262 264 265
349 326 305 285 264 252 246 244 242 239 239 240 242 245 247 246 245 244 243 243 244 244 242 240 241 243 244 246 248 249 250 251 254 256 259 261 262 264
1 351 327 305 288 270 258 254 248 243 241 242 243 244 246 245 244 245 245 245 244 244 245 243 242 242 244 246 246 247 247 250 253 255 257 259 261 264
1 354 343 325 304 284 273 264 259 250 244 244 245 244 246 248 247 247 247 247 246 246 246 244 242 243 243 246 246 246 248 250 252 254 258 260 261 263
357 353 345 334 322 303 289 275 264 257 253 251 251 251 250 250 250 249 249 247 245 245 245 246 244 244 245 245 246 247 249 251 253 255 257 259 261 262
348 346 340 332 327 318 304 288 277 268 262 257 256 256 254 252 252 252 250 247 245 245 244 245 245 243 245 246 246 247 248 250 252 254 256 258 258 260
339 336 334 328 322 313 306 297 287 281 276 270 265 262 259 257 256 254 252 248 244 243 243 245 245 243 244 245 244 247 251 251 251 252 254 254 255 257
332 332 328 325 322 316 306 297 291 289 285 277 271 267 263 262 260 256 253 249 243 242 243 246 246 245 247 246 246 248 250 251 252 251 250 251 252 254
322 323 323 321 319 315 309 302 297 295 292 282 276 272 266 265 264 259 255 250 244 243 246 247 247 247 249 250 249 250 248 249 249 248 247 248 250 252
312 312 313 313 311 310 307 301 296 292 291 285 281 277 271 269 268 262 259 253 248 247 247 248 250 251 253 252 250 248 247 247 248 248 248 249 251 252
305 304 304 304 304 304 302 300 297 293 289 287 284 280 275 272 268 265 264 259 253 249 249 250 251 250 252 250 247 246 245 246 248 248 249 249 249 250
300 299 297 296 295 295 295 294 292 289 287 285 283 280 278 274 271 267 264 261 256 253 252 251 251 250 250 249 249 247 247 247 248 248 250 249 248 248
297 296 293 291 290 289 288 287 286 285 283 281 279 278 276 274 271 268 265 263 259 256 255 254 251 250 249 249 251 251 250 248 248 248 249 248 248 248
296 294 292 290 288 287 285 284 282 281 280 278 276 274 272 271 270 267 264 264 261 259 256 254 252 251 251 250 251 251 250 249 248 248 247 247 248 249
293 292 291 289 287 285 283 282 280 278 276 275 273 272 270 269 268 266 264 263 261 260 258 256 255 253 251 250 249 248 248 249 248 248 247 248 249 251
291 290 288 287 286 284 282 280 279 277 275 273 272 270 269 267 266 265 263 262 260 259 259 257 256 254 251 250 249 249 249 250 250 249 248 248 250 250
Height
5754 5756 5759 5762 5766 5770 5774 5778 5783 5786 5791 5794 5798 5802 5805 5808 5811 5814 5817 5820 5823 5826 5829 5832 5834 5836 5838 5840 5842 5843 5844 5845 5846 5847 5847 5847 5847 5847
5749 5752 5755 5757 5760 5764 5768 5771 5775 5780 5783 5787 5790 5794 5797 5801 5803 5807 5810 5813 5815 5818 5821 5824 5826 5829 5831 5833 5834 5836 5837 5838 5839 5839 5840 5840 5840 5840
5746 5747 5750 5753 5756 5759 5762 5766 5769 5773 5777 5780 5783 5787 5790 5793 5796 5799 5801 5804 5807 5810 5813 5816 5818 5821 5823 5825 5826 5828 5829 5830 5831 5832 5832 5833 5833 5833
5743 5744 5746 5748 5751 5754 5757 5760 5763 5767 5770 5773 5776 5779 5782 5785 5788 5791 5793 5796 5799 5802 5804 5807 5810 5812 5814 5816 5818 5819 5821 5822 5824 5824 5825 5825 5825 5825
5740 5741 5742 5744 5747 5749 5752 5754 5757 5760 5764 5767 5769 5772 5775 5777 5780 5783 5786 5788 5790 5793 5795 5798 5801 5804 5806 5808 5810 5811 5813 5814 5816 5816 5817 5817 5817 5817
5739 5739 5740 5741 5743 5745 5747 5749 5752 5754 5757 5760 5762 5765 5767 5770 5772 5775 5777 5780 5782 5785 5787 5789 5792 5794 5797 5799 5801 5803 5804 5806 5807 5808 5809 5809 5809 5809
5738 5738 5738 5738 5739 5741 5742 5744 5746 5749 5751 5753 5756 5758 5760 5762 5765 5767 5769 5771 5774 5776 5778 5781 5784 5786 5788 5790 5792 5794 5796 5797 5798 5799 5800 5800 5801 5800
5738 5737 5737 5736 5737 5737 5739 5740 5742 5743 5746 5748 5750 5752 5753 5755 5757 5759 5761 5764 5766 5768 5770 5772 5775 5777 5780 5782 5783 5785 5787 5788 5790 5791 5791 5792 5792 5792
5737 5736 5736 5735 5735 5735 5735 5736 5737 5738 5740 5742 5744 5745 5747 5749 5750 5752 5753 5755 5758 5759 5761 5764 5766 5769 5771 5773 5774 5777 5778 5780 5781 5782 5783 5783 5783 5783
5737 5736 5735 5734 5733 5733 5733 5733 5733 5734 5736 5737 5738 5740 5741 5741 5743 5745 5746 5747 5749 5751 5753 5756 5758 5761 5763 5765 5766 5768 5770 5772 5773 5774 5774 5774 5775 5775
5738 5736 5734 5733 5732 5731 5731 5730 5730 5731 5731 5732 5733 5734 5735 5736 5737 5738 5739 5740 5742 5743 5745 5748 5750 5752 5754 5757 5758 5760 5762 5763 5764 5765 5766 5766 5767 5767
5738 5736 5734 5732 5731 5730 5729 5728 5728 5727 5728 5728 5729 5729 5729 5730 5731 5731 5732 5733 5735 5737 5738 5740 5742 5744 5746 5749 5750 5752 5753 5755 5756 5757 5758 5759 5759 5759
5738 5735 5733 5732 5730 5728 5727 5726 5725 5725 5724 5724 5724 5725 5725 5725 5725 5725 5726 5727 5728 5730 5732 5733 5735 5737 5739 5741 5742 5744 5745 5747 5748 5749 5750 5751 5751 5752
5737 5734 5732 5730 5729 5727 5726 5724 5723 5722 5721 5721 5721 5720 5720 5720 5720 5720 5720 5721 5722 5723 5725 5726 5728 5730 5732 5733 5735 5737 5738 5739 5740 5741 5742 5743 5744 5744
5735 5733 5731 5729 5727 5725 5724 5722 5721 5720 5719 5718 5717 5716 5716 5715 5715 5715 5715 5715 5716 5717 5719 5720 5722 5723 5725 5726 5728 5729 5730 5731 5732 5734 5735 5736 5737 5737
5733 5731 5729 5727 5725 5723 5721 5720 5718 5717 5716 5714 5713 5712 5712 5711 5711 5710 5710 5710 5711 5712 5713 5714 5715 5717 5718 5719 5720 5722 5723 5724 5725 5726 5727 5728 5729 5729
5730 5728 5726 5724 5722 5720 5718 5717 5715 5714 5712 5711 5710 5709 5708 5707 5706 5706 5705 5705 5706 5706 5707 5708 5709 5710 5711 5712 5713 5714 5715 5716 5717 5719 5719 5720 5721 5722
5726 5724 5722 5720 5718 5717 5715 5713 5711 5710 5708 5707 5706 5705 5704 5703 5702 5701 5701 5701 5701 5701 5701 5702 5703 5704 5704 5705 5706 5707 5708 5709 5710 5711 5712 5714 5714 5715
5721 5719 5717 5715 5714 5712 5710 5709 5707 5705 5704 5702 5701 5700 5699 5698 5697 5697 5696 5696 5696 5696 5696 5696 5697 5697 5698 5699 5700 5700 5701 5702 5703 5705 5706 5707 5708 5709
5715 5713 5711 5709 5707 5706 5704 5703 5701 5700 5698 5697 5696 5695 5694 5693 5692 5691 5691 5691 5690 5690 5690 5690 5690 5691 5692 5693 5693 5694 5695 5696 5696 5698 5699 5700 5701 5702
5707 5705 5703 5701 5700 5698 5697 5695 5694 5693 5691 5690 5689 5688 5687 5687 5686 5685 5685 5684 5684 5684 5684 5684 5684 5685 5685 5686 5687 5687 5688 5689 5690 5691 5692 5693 5694 5695
5698 5696 5694 5692 5691 5689 5688 5686 5685 5684 5683 5682 5681 5681 5680 5679 5679 5678 5678 5677 5677 5677 5677 5677 5677 5678 5678 5679 5679 5680 5681 5682 5683 5683 5685 5686 5687 5688
5688 5686 5684 5682 5680 5679 5677 5676 5675 5674 5673 5672 5672 5671 5671 5670 5670 5670 5669 5669 5669 5669 5669 5669 5669 5670 5670 5671 5672 5673 5673 5674 5675 5676 5677 5678 5680 5681